Date,TemperatureHighF,TemperatureAvgF,TemperatureLowF,DewpointHighF,DewpointAvgF,DewpointLowF,HumidityHigh,HumidityAvg,HumidityLow,PressureMaxIn,PressureMinIn,WindSpeedMaxMPH,WindSpeedAvgMPH,GustSpeedMaxMPH,PrecipitationSumIn
2014-1-1,64,44,34,42,33,28,82,66,37,30.14,30.02,0,0,1,0.00
2014-1-2,66,48,38,45,36,31,83,67,38,30.08,29.96,0,0,1,0.00
2014-1-3,66,49,40,45,38,34,81,68,41,29.98,29.87,0,0,1,0.00
2014-1-4,65,47,38,43,36,29,88,68,38,30.00,29.88,0,0,2,0.00
2014-1-5,66,45,35,40,30,24,74,58,28,30.14,29.99,0,0,2,0.00
2014-1-6,60,46,37,45,37,30,79,72,49,30.20,30.09,0,0,1,0.00
2014-1-7,62,47,40,44,38,33,85,71,43,30.14,30.03,0,0,3,0.00
2014-1-8,57,48,41,47,42,37,90,82,68,30.16,30.06,0,0,3,0.00
2014-1-9,59,46,40,48,41,37,92,83,60,30.19,30.09,1,0,7,0.00
2014-1-10,63,47,38,49,41,35,92,80,54,30.21,30.09,0,0,4,0.00
2014-1-11,58,46,39,51,42,36,90,85,72,30.23,30.09,1,0,5,0.00
2014-1-12,59,46,38,45,37,33,92,73,41,30.29,30.19,1,0,6,0.00
2014-1-13,65,48,40,39,34,32,81,61,30,30.35,30.24,0,0,3,0.00
2014-1-14,69,49,38,35,30,26,78,53,20,30.36,30.23,1,0,5,0.00
2014-1-15,72,51,40,39,32,28,74,51,22,30.24,30.11,0,0,1,0.00
2014-1-16,73,50,40,40,31,27,69,50,21,30.14,30.02,0,0,2,0.00
2014-1-17,73,50,39,39,30,26,70,49,19,30.11,30.00,0,0,1,0.00
2014-1-18,72,49,38,37,28,24,68,48,18,30.09,29.96,0,0,1,0.00
2014-1-19,70,48,37,35,28,24,69,48,19,30.06,29.96,0,0,2,0.00
2014-1-20,68,47,35,36,27,23,70,50,19,30.17,30.03,0,0,2,0.00
2014-1-21,70,48,37,35,29,27,72,51,21,30.17,30.05,0,0,1,0.00
2014-1-22,74,50,38,31,25,18,63,42,13,30.09,29.85,1,0,5,0.00
2014-1-23,65,47,38,46,34,25,85,62,26,29.94,29.79,1,0,10,0.00
2014-1-24,65,49,40,51,42,38,91,78,50,30.20,29.94,2,0,4,0.00
2014-1-25,72,52,42,44,38,32,86,63,30,30.20,30.04,0,0,2,0.00
2014-1-26,69,51,42,42,36,32,76,60,28,30.06,29.94,0,0,3,0.00
2014-1-27,66,49,37,48,40,32,87,74,49,30.12,30.00,0,0,4,0.00
2014-1-28,70,55,44,55,47,40,86,76,51,30.17,30.07,0,0,4,0.00
2014-1-29,67,60,54,56,53,51,90,81,65,30.13,29.88,1,0,7,0.00
2014-1-30,60,52,49,51,44,40,89,73,49,29.88,29.78,1,0,9,0.02
2014-1-31,60,48,38,43,37,26,92,69,27,30.01,29.83,0,0,7,0.00
2014-2-1,61,44,33,40,33,28,90,68,35,30.09,30.00,3,0,5,0.00
2014-2-2,46,41,37,44,38,30,93,88,77,30.02,29.79,0,0,4,0.43
2014-2-3,53,40,34,45,36,31,94,85,61,30.02,29.89,2,0,10,0.00
2014-2-4,55,41,32,42,36,29,93,81,58,30.10,29.99,0,0,3,0.00
2014-2-5,56,42,32,42,36,29,92,80,49,30.15,30.00,0,0,4,0.02
2014-2-6,51,47,44,49,45,41,93,92,89,30.00,29.81,1,0,3,0.80
2014-2-7,51,49,46,50,48,45,96,94,93,30.06,29.94,3,0,7,0.81
2014-2-8,55,53,50,54,52,48,97,96,95,30.13,30.04,1,0,6,1.38
2014-2-9,56,54,54,55,54,53,97,97,97,30.12,30.03,2,0,5,0.73
2014-2-10,59,53,45,57,52,43,97,96,93,30.19,30.05,1,0,4,0.01
2014-2-11,61,48,39,54,45,37,96,90,66,30.17,30.08,0,0,2,0.00
2014-2-12,62,51,38,52,46,36,95,85,62,30.19,30.10,0,0,1,0.00
2014-2-13,70,54,44,58,49,41,96,86,61,30.13,30.00,0,0,0,0.00
2014-2-14,68,54,48,57,50,45,94,87,67,30.08,29.98,0,0,1,0.00
2014-2-15,57,50,45,54,48,43,94,92,87,30.00,29.91,0,0,0,0.01
2014-2-16,63,51,41,51,46,38,94,82,44,30.11,29.98,0,0,0,0.04
2014-2-17,62,47,37,46,41,35,94,80,48,30.10,30.01,0,0,0,0.01
2014-2-18,65,49,39,52,44,37,94,82,49,30.11,30.00,0,0,0,0.00
2014-2-19,65,52,43,49,44,39,92,77,49,30.11,30.01,0,0,0,0.00
2014-2-20,65,50,39,46,40,35,92,72,34,30.11,30.02,0,0,0,0.00
2014-2-21,74,52,40,46,40,37,92,69,27,30.03,29.90,0,0,0,0.00
2014-2-22,73,51,39,48,41,36,92,71,26,29.93,29.83,0,0,0,0.00
2014-2-23,74,50,38,48,42,35,93,75,31,29.94,29.86,0,0,0,0.00
2014-2-24,75,51,40,50,43,37,94,77,30,29.92,29.83,0,0,0,0.00
2014-2-25,59,50,45,49,45,43,93,84,63,29.92,29.85,0,0,1,0.00
2014-2-26,55,52,50,53,50,46,96,90,81,29.90,29.62,0,0,0,1.89
2014-2-27,61,53,49,53,51,47,96,92,69,29.84,29.45,0,0,0,0.07
2014-2-28,54,52,50,52,50,48,96,95,92,29.45,29.29,3,1,13,1.96
2014-3-1,58,53,49,56,51,48,97,95,89,29.74,29.37,1,0,5,1.03
2014-3-2,55,52,49,54,51,48,97,95,94,30.11,29.74,3,0,7,0.28
2014-3-3,55,52,49,53,50,48,96,94,91,30.10,30.00,1,0,2,0.01
2014-3-4,61,55,50,58,53,49,96,93,89,30.04,29.97,0,0,3,0.01
2014-3-5,66,57,51,58,52,49,96,87,59,30.04,29.97,1,0,5,0.02
2014-3-6,64,54,46,54,50,44,95,87,55,30.12,30.00,2,0,6,0.03
2014-3-7,67,50,40,51,44,38,95,81,39,30.10,30.01,0,0,4,0.00
2014-3-8,74,53,40,55,46,38,95,80,38,30.13,30.02,1,0,5,0.00
2014-3-9,76,58,50,54,48,36,92,72,23,30.11,30.01,1,0,7,0.00
2014-3-10,69,57,47,50,45,38,87,67,34,30.13,30.02,2,0,7,0.00
2014-3-11,70,58,47,41,35,26,69,44,21,30.08,29.92,2,0,12,0.00
2014-3-12,76,56,42,44,37,32,83,54,23,29.98,29.90,1,0,5,0.00
2014-3-13,78,55,40,41,34,26,84,53,15,30.00,29.89,1,0,6,0.00
2014-3-14,75,51,36,53,42,32,89,73,37,30.16,30.00,1,0,5,0.00
2014-3-15,81,58,42,50,42,34,93,64,19,30.24,30.14,1,0,5,0.00
2014-3-16,84,59,43,48,40,27,86,57,18,30.23,30.09,1,0,5,0.00
2014-3-17,68,54,45,47,43,36,88,67,36,30.15,29.89,3,0,10,0.00
2014-3-18,72,52,37,40,34,26,91,57,19,29.91,29.80,1,0,6,0.00
2014-3-19,76,54,39,43,36,31,86,58,21,29.99,29.89,2,0,6,0.00
2014-3-20,77,56,41,45,40,36,84,59,26,29.99,29.85,2,0,6,0.00
2014-3-21,68,50,40,49,43,37,92,77,48,29.95,29.86,1,0,5,0.00
2014-3-22,69,51,42,49,44,38,91,77,47,30.07,29.92,1,0,5,0.00
2014-3-23,73,53,42,52,45,40,92,77,39,30.10,30.00,1,0,4,0.00
2014-3-24,79,55,38,50,42,36,93,67,25,30.06,29.94,1,0,5,0.00
2014-3-25,64,50,37,51,42,32,88,76,57,29.98,29.80,2,0,6,0.02
2014-3-26,59,51,48,53,47,45,94,88,67,29.92,29.75,1,0,6,0.06
2014-3-27,59,51,44,52,48,42,94,89,74,30.09,29.92,0,0,3,0.01
2014-3-28,68,54,46,52,47,44,93,80,52,30.13,30.05,2,0,6,0.00
2014-3-29,56,51,48,54,50,44,95,93,89,30.10,29.93,0,0,6,0.00
2014-3-30,60,50,42,49,43,39,95,81,51,30.06,29.97,3,0,9,0.00
2014-3-31,52,44,39,47,41,36,93,90,76,30.02,29.78,3,0,10,1.19
2014-4-1,49,43,38,48,42,36,96,94,91,29.90,29.78,1,0,7,0.64
2014-4-2,59,45,37,48,41,35,96,87,55,30.05,29.82,1,0,6,0.00
2014-4-3,63,47,37,49,39,35,94,76,38,30.05,29.98,2,0,12,0.00
2014-4-4,57,49,43,48,44,40,93,83,58,29.99,29.89,1,0,9,0.12
2014-4-5,67,52,42,49,44,40,93,76,48,30.14,29.97,3,0,12,0.00
2014-4-6,78,56,40,53,44,38,94,71,29,30.15,30.02,1,0,7,0.00
2014-4-7,84,61,46,56,49,44,94,71,31,30.07,29.98,2,0,6,0.00
2014-4-8,83,62,49,57,48,41,94,68,23,30.02,29.96,2,0,7,0.00
2014-4-9,81,59,45,56,48,42,92,71,32,30.01,29.90,1,0,4,0.00
2014-4-10,84,58,42,52,45,34,93,68,18,29.95,29.82,1,0,7,0.00
2014-4-11,70,55,47,54,49,44,92,80,56,29.88,29.78,1,0,5,0.00
2014-4-12,67,55,49,51,47,44,89,76,54,29.89,29.81,2,0,6,0.00
2014-4-13,72,57,49,52,48,45,88,73,50,29.99,29.88,1,0,7,0.00
2014-4-14,81,57,42,56,48,40,93,74,35,30.02,29.94,2,0,10,0.00
2014-4-15,79,58,45,55,48,42,93,73,41,29.98,29.82,1,0,5,0.00
2014-4-16,83,59,42,55,47,40,93,70,32,29.86,29.73,1,0,5,0.00
2014-4-17,73,56,46,55,47,43,92,74,44,29.81,29.72,1,0,12,0.00
2014-4-18,72,56,45,54,48,42,91,75,51,29.90,29.79,2,0,9,0.00
2014-4-19,74,56,43,51,45,31,90,69,23,30.06,29.88,1,0,9,0.00
2014-4-20,83,60,43,56,43,33,93,61,17,30.05,29.96,0,0,5,0.00
2014-4-21,74,57,42,50,40,31,83,55,27,30.01,29.90,1,0,9,0.00
2014-4-22,63,53,48,48,40,31,85,63,32,30.06,29.90,5,0,15,0.01
2014-4-23,68,54,43,45,41,38,84,63,36,30.06,29.99,8,0,16,0.00
2014-4-24,72,56,43,53,47,40,92,74,48,30.04,29.91,2,0,6,0.00
2014-4-25,56,51,46,51,48,43,92,88,80,29.91,29.73,0,0,12,0.27
2014-4-26,61,52,47,44,40,38,88,67,44,30.03,29.77,3,0,12,0.01
2014-4-27,68,53,44,52,45,40,92,76,39,30.07,29.97,1,0,5,0.01
2014-4-28,75,56,40,47,41,32,92,63,23,30.12,30.05,1,0,12,0.00
2014-4-29,87,63,44,51,43,39,90,55,20,30.11,29.98,1,0,4,0.00
2014-4-30,90,67,49,54,46,37,87,55,16,30.00,29.94,1,0,7,0.00
2014-5-1,93,68,49,54,44,34,84,50,14,30.02,29.95,1,0,5,0.00
2014-5-2,89,66,47,49,40,32,80,45,15,30.01,29.91,2,0,7,0.00
2014-5-3,73,59,50,52,46,41,87,64,33,29.96,29.90,2,0,12,0.00
2014-5-4,74,57,48,52,47,44,88,71,44,29.97,29.92,3,0,9,0.00
2014-8-1,72,71,70,58,58,58,65,64,63,29.88,29.88,0,0,1,0.00